Flag for U.S.A. Weather past 2 weeks in Louisville, Kentucky, U.S.A.

Now
53 °F

Mostly cloudy.


Feels Like: 51 °F
Forecast: 42 / 61 °F
Wind: 8 mph from Southwest

Location: Standiford Field

Current Time: Mar 30, 2015 at 1:57:41 AM

Latest Report: Mar 30, 2015 at 12:56 AM


Visibility: 10 mi

Pressure: 30.03 "Hg

Humidity: 66%

Dew point: 42 °F

Location of LouisvilleLocation

Historic Weather in Louisville — Graph

°F

Louisville temperature yesterday

Maximum temperature yesterday: 59 °F (at 6:56 PM)
Minimum temperature yesterday: 27 °F (at 5:56 AM)
Average temperature yesterday: 44 °F

Past Weeks' High & Low Weather Summary

 TemperatureHumidityPressure
High77 °F (Mar 16, 3:56 PM)93% (Mar 19, 11:56 PM)30.37 "Hg (Mar 19, 11:56 PM)
Low23 °F (Mar 28, 7:56 AM)17% (Mar 29, 3:56 PM)29.83 "Hg (Mar 26, 5:56 AM)
Average49 °F55%30.12 "Hg
* Reported Mar 15 12:56 AM — Mar 30 12:56 AM, Louisville, Weather by CustomWeather, © 2015

Note: Actual official high and low records may vary slightly from our data, if they occured in-between our weather recording intervals... More about our weather records

Advertising

Louisville weather history for previous 24 hours

 ConditionsComfort  
Time TempWeatherWind HumidityBarometerVisibility
12:56 AM
Mon, Mar 30
53 °FMostly cloudy.8 mph66%30.03 "Hg10 mi
11:56 PM
Sun, Mar 29
53 °FLight rain. Overcast.9 mph64%30.03 "Hg9 mi
10:56 PM57 °FOvercast.14 mph44%30.01 "Hg10 mi
9:56 PM58 °FMostly cloudy.10 mph35%29.99 "Hg10 mi
8:56 PM58 °FOvercast.8 mph31%29.99 "Hg10 mi
7:56 PM59 °FCloudy.8 mph26%30.01 "Hg10 mi
6:56 PM59 °FPartly sunny.10 mph22%29.98 "Hg10 mi
5:56 PM58 °FSunny.18 mph19%29.98 "Hg10 mi
4:56 PM58 °FBroken clouds.20 mph18%30.03 "Hg10 mi
3:56 PM58 °FBroken clouds.16 mph17%30.10 "Hg10 mi
2:56 PM56 °FPartly sunny.10 mph19%30.16 "Hg10 mi
1:56 PM52 °FPartly sunny.13 mph23%30.22 "Hg10 mi
12:56 PM48 °FPartly sunny.13 mph28%30.27 "Hg10 mi
11:56 AM45 °FPartly sunny.14 mph31%30.30 "Hg10 mi
10:56 AM41 °FScattered clouds.15 mph38%30.33 "Hg10 mi
9:56 AM36 °FPassing clouds.12 mph48%30.35 "Hg10 mi
8:56 AM30 °FPassing clouds.9 mph59%30.35 "Hg10 mi
7:56 AM27 °FPassing clouds.7 mph66%30.35 "Hg10 mi
6:56 AM27 °FPassing clouds.7 mph63%30.34 "Hg10 mi
5:56 AM27 °FClear.5 mph63%30.35 "Hg10 mi
4:56 AM28 °FClear.5 mph61%30.36 "Hg10 mi
3:56 AM30 °FClear.5 mph54%30.36 "Hg10 mi
2:56 AM32 °FClear.No wind47%30.37 "Hg10 mi
1:56 AM32 °FClear.3 mph50%30.37 "Hg10 mi
Weather by CustomWeather, © 2015

See weather overviewHow to use our weather pages